Tracking 27402 objects as of 3-Jun-2023
HD Live streaming from Space Station
objects crossing your sky now

THOR ABLESTAR DEB

Track THOR ABLESTAR DEB now!
10-day predictions


NORAD ID: 119
Int'l Code: 1961-015D
Perigee: 741.5 km
Apogee: 895.4 km
Inclination: 66.7 °
Period: 101.1 minutes
Semi major axis: 7189 km
RCS: 0.2611 m2 (medium)
Launch date: June 29, 1961
Source: United States (US)
Launch site: AIR FORCE EASTERN TEST RANGE (AFETR)

Note: This is SATELLITE DEBRIS
Your satellite tracking list
Your tracking list is empty




NASA's NSSDC Master Catalog

Two Line Element Set (TLE):
1 00119U 61015D   23153.83674931  .00000798  00000-0  36021-3 0  9998
2 00119  66.7295  30.3382 0107050 340.6081  19.0954 14.24171081200023
Source of the keplerian elements: AFSPC